Location: Tamazert
(32.6352°N, 5.2072°W)
Time: 16:55:50
(UTC+00:00)

Transit 2A Rocket - Pass Details

Date: 07 October 2022
Orbit: 589 x 912 km, 66.7° (Epoch: 07 December)

Event Time Altitude Azimuth Distance (km) Brightness Sun altitude
Rises 05:55:35 0° 254° (WSW) 2,831 - -5.7°
Exits shadow 05:57:44 - 270° (W) 2,224 6.7 -5.3°
Reaches altitude 10° 05:59:22 10° 288° (WNW) 1,914 6.5 -4.9°
Maximum altitude 06:00:50 12° 308° (NW) 1,815 6.5 -4.6°
Drops below altitude 10° 06:02:18 10° 329° (NNW) 1,918 6.8 -4.3°
Sets 06:06:07 0° 3° (N) 2,844 8.0 -3.5°
